Location: Holyhead Bay
(53.3667°N, 4.6667°W)
Time: 19:54:03
(UTC+00:00)

Lacrosse 5 rocket - Pass Details

Date: 24 November 2020
Orbit: 461 x 635 km, 57.0° (Epoch: 17 January)

Event Time Altitude Azimuth Distance (km) Brightness Sun altitude
Rises 19:02:16 0° 207° (SSW) 2,505 5.1 -24.9°
Reaches altitude 10° 19:04:38 10° 194° (SSW) 1,618 3.9 -25.2°
Enters shadow 19:04:41 10° 194° (SSW) 1,601 3.8 -25.3°
